| time (UTC) | temp C | wind direction | speed KPH | gust KPH | rain 1hr cm | rain 24hr cm | rain mn cm | humidity % | barometer mb |
| 20260507065516 | 6 | 158 | 1.6 | 3.2 | 0.00 | 0.99 | 0.10 | 98 | 1013.5 |
| 20260507064515 | 5 | 158 | 1.6 | 3.2 | 0.00 | 1.04 | 0.10 | 98 | 1013.8 |
| 20260507063515 | 5 | 0.0 | 0.0 | 0.00 | 1.14 | 0.10 | 97 | 1013.6 | |
| 20260507062515 | 5 | 0.0 | 1.6 | 0.00 | 1.22 | 0.10 | 97 | 1013.5 | |
| 20260507061515 | 5 | 0.0 | 1.6 | 0.00 | 1.27 | 0.10 | 97 | 1013.7 | |
| 20260507060515 | 5 | 0.0 | 1.6 | 0.00 | 1.30 | 0.10 | 97 | 1013.7 | |
| 20260507055515 | 5 | 0.0 | 0.0 | 0.00 | 1.37 | 0.10 | 97 | 1013.7 | |
| 20260507054515 | 5 | 0.0 | 3.2 | 0.00 | 1.37 | 0.10 | 97 | 1014.0 | |
| 20260507053515 | 5 | 158 | 3.2 | 4.8 | 0.00 | 1.40 | 0.10 | 97 | 1013.9 |
| 20260507052515 | 5 | 158 | 3.2 | 4.8 | 0.00 | 1.40 | 0.10 | 97 | 1013.8 |
| 20260507051516 | 5 | 180 | 1.6 | 3.2 | 0.00 | 1.40 | 0.10 | 96 | 1013.9 |
| 20260507050515 | 5 | 135 | 1.6 | 3.2 | 0.00 | 1.40 | 0.10 | 97 | 1014.1 |
| 20260507045515 | 5 | 135 | 1.6 | 3.2 | 0.00 | 1.40 | 0.10 | 96 | 1014.0 |
| 20260507044517 | 5 | 0.0 | 0.0 | 0.00 | 1.40 | 0.10 | 96 | 1014.1 | |
| 20260507043517 | 6 | 0.0 | 1.6 | 0.00 | 1.45 | 0.10 | 97 | 1014.1 | |
| 20260507042517 | 6 | 0.0 | 1.6 | 0.00 | 1.45 | 0.10 | 97 | 1014.2 | |
| 20260507041517 | 6 | 135 | 1.6 | 4.8 | 0.00 | 1.47 | 0.10 | 97 | 1013.9 |
| 20260507040517 | 6 | 180 | 1.6 | 3.2 | 0.00 | 1.47 | 0.10 | 97 | 1013.9 |
| 20260507035517 | 6 | 180 | 1.6 | 3.2 | 0.00 | 1.47 | 0.10 | 97 | 1013.6 |
| 20260507034517 | 6 | 180 | 3.2 | 6.4 | 0.00 | 1.47 | 0.10 | 97 | 1013.4 |
| 20260507033519 | 6 | 203 | 3.2 | 4.8 | 0.00 | 1.47 | 0.10 | 97 | 1013.7 |
| 20260507032517 | 6 | 180 | 3.2 | 4.8 | 0.00 | 1.47 | 0.10 | 97 | 1013.6 |
| 20260507031517 | 6 | 180 | 1.6 | 3.2 | 0.00 | 1.47 | 0.10 | 97 | 1013.5 |
| 20260507030517 | 5 | 180 | 1.6 | 3.2 | 0.00 | 1.47 | 0.10 | 97 | 1013.4 |
| 20260507025517 | 5 | 0.0 | 1.6 | 0.00 | 1.47 | 0.10 | 97 | 1013.4 | |
| 20260507024517 | 5 | 180 | 1.6 | 3.2 | 0.00 | 1.47 | 0.10 | 97 | 1013.5 |
| 20260507023517 | 5 | 180 | 1.6 | 4.8 | 0.00 | 1.50 | 0.10 | 97 | 1013.4 |
| 20260507022517 | 5 | 0.0 | 3.2 | 0.00 | 1.50 | 0.10 | 97 | 1013.4 | |
| 20260507021517 | 5 | 180 | 1.6 | 3.2 | 0.00 | 1.50 | 0.10 | 97 | 1013.6 |
| 20260507020517 | 5 | 0.0 | 3.2 | 0.00 | 1.50 | 0.10 | 97 | 1013.5 | |
| 20260507015517 | 5 | 180 | 4.8 | 8.0 | 0.00 | 1.50 | 0.10 | 97 | 1013.5 |
| 20260507014517 | 5 | 203 | 1.6 | 4.8 | 0.00 | 1.50 | 0.10 | 96 | 1013.4 |
| 20260507013517 | 5 | 180 | 4.8 | 8.0 | 0.00 | 1.50 | 0.10 | 96 | 1013.4 |
| 20260507012517 | 6 | 158 | 1.6 | 3.2 | 0.00 | 1.50 | 0.10 | 96 | 1013.2 |
| 20260507011517 | 5 | 158 | 1.6 | 3.2 | 0.00 | 1.50 | 0.10 | 97 | 1013.4 |
| 20260507010517 | 5 | 0.0 | 0.0 | 0.00 | 1.50 | 0.10 | 97 | 1013.3 | |
| 20260507005517 | 5 | 203 | 1.6 | 3.2 | 0.00 | 1.50 | 0.10 | 97 | 1013.3 |
| 20260507004517 | 5 | 135 | 1.6 | 4.8 | 0.00 | 1.50 | 0.10 | 97 | 1012.9 |
| 20260507003517 | 5 | 158 | 1.6 | 4.8 | 0.00 | 1.50 | 0.10 | 97 | 1013.0 |
| 20260507002517 | 5 | 203 | 3.2 | 4.8 | 0.00 | 1.50 | 0.10 | 97 | 1013.1 |
| 20260507001517 | 5 | 203 | 1.6 | 4.8 | 0.00 | 1.50 | 0.10 | 96 | 1012.8 |
| 20260507000517 | 6 | 203 | 3.2 | 6.4 | 0.00 | 1.50 | 0.10 | 96 | 1012.9 |
| 20260506235517 | 6 | 203 | 3.2 | 4.8 | 0.00 | 1.50 | 0.10 | 96 | 1013.0 |
| 20260506234517 | 6 | 0.0 | 3.2 | 0.00 | 1.50 | 0.10 | 96 | 1012.9 | |
| 20260506233517 | 6 | 0 | 3.2 | 4.8 | 0.03 | 1.50 | 0.10 | 96 | 1013.0 |
| 20260506232517 | 6 | 23 | 1.6 | 4.8 | 0.03 | 1.50 | 0.10 | 95 | 1012.9 |
| 20260506231517 | 6 | 293 | 1.6 | 6.4 | 0.10 | 1.50 | 0.10 | 95 | 1013.1 |
| 20260506230517 | 6 | 180 | 1.6 | 3.2 | 0.10 | 1.50 | 0.10 | 95 | 1013.0 |
| 20260506225517 | 6 | 68 | 3.2 | 6.4 | 0.10 | 1.52 | 0.10 | 96 | 1013.0 |
| 20260506224517 | 6 | 225 | 3.2 | 4.8 | 0.10 | 1.52 | 0.10 | 95 | 1013.0 |
| 20260506223517 | 6 | 158 | 1.6 | 4.8 | 0.08 | 1.50 | 0.08 | 95 | 1013.0 |
| 20260506222517 | 6 | 68 | 3.2 | 6.4 | 0.08 | 1.50 | 0.08 | 96 | 1013.0 |
| 20260506221517 | 6 | 180 | 4.8 | 8.0 | 0.00 | 1.42 | 0.00 | 95 | 1012.8 |
| 20260506220517 | 6 | 203 | 1.6 | 3.2 | 0.00 | 1.42 | 0.00 | 95 | 1012.6 |
| 20260506215517 | 6 | 203 | 3.2 | 6.4 | 0.00 | 1.47 | 1.45 | 95 | 1012.4 |
| 20260506214517 | 6 | 158 | 3.2 | 8.0 | 0.00 | 1.55 | 1.45 | 95 | 1012.5 |
| 20260506213520 | 6 | 158 | 1.6 | 3.2 | 0.00 | 1.57 | 1.45 | 94 | 1012.5 |
| 20260506212517 | 6 | 203 | 3.2 | 6.4 | 0.00 | 1.60 | 1.45 | 94 | 1012.3 |
| 20260506211517 | 6 | 203 | 4.8 | 8.0 | 0.00 | 1.65 | 1.45 | 94 | 1012.5 |
| 20260506210517 | 6 | 158 | 3.2 | 6.4 | 0.00 | 1.65 | 1.45 | 94 | 1012.3 |
| 20260506205517 | 6 | 203 | 3.2 | 6.4 | 0.00 | 1.65 | 1.45 | 94 | 1012.3 |
| 20260506204517 | 6 | 203 | 3.2 | 6.4 | 0.00 | 1.65 | 1.45 | 94 | 1012.4 |
| 20260506203517 | 6 | 158 | 3.2 | 8.0 | 0.00 | 1.65 | 1.45 | 94 | 1012.3 |
| 20260506202517 | 6 | 203 | 3.2 | 8.0 | 0.00 | 1.70 | 1.45 | 94 | 1012.2 |
| 20260506201517 | 6 | 180 | 1.6 | 6.4 | 0.00 | 1.83 | 1.45 | 94 | 1012.1 |
| 20260506200517 | 6 | 203 | 3.2 | 6.4 | 0.00 | 1.93 | 1.45 | 94 | 1011.9 |
| 20260506195517 | 6 | 180 | 4.8 | 8.0 | 0.00 | 2.03 | 1.45 | 93 | 1011.8 |
| 20260506194517 | 6 | 180 | 1.6 | 4.8 | 0.00 | 2.13 | 1.45 | 94 | 1011.6 |
| 20260506193517 | 6 | 180 | 3.2 | 6.4 | 0.00 | 2.21 | 1.45 | 94 | 1011.4 |
| 20260506192517 | 6 | 225 | 3.2 | 4.8 | 0.00 | 2.21 | 1.45 | 93 | 1011.4 |
| 20260506191517 | 6 | 158 | 3.2 | 6.4 | 0.00 | 2.21 | 1.45 | 93 | 1011.2 |
| 20260506190517 | 6 | 180 | 3.2 | 6.4 | 0.00 | 2.21 | 1.45 | 93 | 1011.2 |
| 20260506185517 | 6 | 180 | 3.2 | 6.4 | 0.00 | 2.21 | 1.45 | 92 | 1011.2 |
| 20260506184517 | 7 | 158 | 1.6 | 6.4 | 0.00 | 2.21 | 1.45 | 92 | 1011.0 |
| 20260506183517 | 7 | 180 | 1.6 | 3.2 | 0.00 | 2.34 | 1.45 | 91 | 1010.8 |
| 20260506182517 | 7 | 203 | 3.2 | 4.8 | 0.00 | 2.69 | 1.45 | 91 | 1010.7 |
| 20260506181517 | 7 | 203 | 3.2 | 4.8 | 0.00 | 2.79 | 1.45 | 90 | 1010.7 |
| 20260506180517 | 7 | 225 | 3.2 | 6.4 | 0.00 | 2.90 | 1.45 | 90 | 1010.7 |
| 20260506175517 | 8 | 203 | 4.8 | 6.4 | 0.00 | 2.97 | 1.45 | 89 | 1010.5 |
| 20260506174517 | 8 | 225 | 3.2 | 6.4 | 0.00 | 2.97 | 1.45 | 87 | 1010.6 |
| 20260506173517 | 8 | 0.0 | 3.2 | 0.00 | 2.97 | 1.45 | 86 | 1010.5 | |
| 20260506172516 | 9 | 0.0 | 0.0 | 0.00 | 2.97 | 1.45 | 85 | 1010.4 | |
| 20260506171516 | 10 | 0.0 | 3.2 | 0.00 | 2.97 | 1.45 | 83 | 1010.5 | |
| 20260506170517 | 11 | 203 | 4.8 | 9.7 | 0.00 | 2.97 | 1.45 | 79 | 1010.7 |
| 20260506165516 | 11 | 315 | 1.6 | 4.8 | 0.00 | 2.97 | 1.45 | 80 | 1010.7 |
| 20260506164517 | 11 | 338 | 1.6 | 3.2 | 0.00 | 2.97 | 1.45 | 79 | 1010.5 |
| 20260506163516 | 11 | 338 | 4.8 | 6.4 | 0.00 | 2.97 | 1.45 | 77 | 1010.7 |
| 20260506162516 | 11 | 338 | 4.8 | 9.7 | 0.00 | 2.97 | 1.45 | 80 | 1010.5 |
| 20260506161516 | 11 | 315 | 8.0 | 14.5 | 0.00 | 2.97 | 1.45 | 79 | 1010.8 |
| 20260506160516 | 11 | 338 | 4.8 | 8.0 | 0.00 | 2.97 | 1.45 | 81 | 1010.5 |
| 20260506155516 | 10 | 315 | 4.8 | 8.0 | 0.00 | 2.97 | 1.45 | 81 | 1010.5 |
| 20260506154516 | 10 | 315 | 8.0 | 9.7 | 0.00 | 2.97 | 1.45 | 82 | 1010.6 |
| 20260506153516 | 10 | 338 | 6.4 | 9.7 | 0.00 | 2.97 | 1.45 | 80 | 1010.6 |
| 20260506152517 | 10 | 0 | 8.0 | 12.9 | 0.00 | 2.97 | 1.45 | 80 | 1010.4 |
| 20260506151516 | 9 | 338 | 6.4 | 9.7 | 0.00 | 2.97 | 1.45 | 81 | 1010.5 |
| 20260506150516 | 9 | 338 | 4.8 | 8.0 | 0.00 | 2.97 | 1.45 | 82 | 1010.5 |
| 20260506145516 | 9 | 338 | 8.0 | 12.9 | 0.00 | 2.97 | 1.45 | 82 | 1010.6 |
| 20260506144516 | 9 | 338 | 6.4 | 11.3 | 0.00 | 2.97 | 1.45 | 82 | 1010.5 |
| 20260506143516 | 9 | 338 | 6.4 | 9.7 | 0.00 | 2.97 | 1.45 | 83 | 1010.7 |
| 20260506142517 | 9 | 338 | 8.0 | 14.5 | 0.00 | 2.97 | 1.45 | 84 | 1010.5 |
| 20260506141516 | 9 | 0 | 8.0 | 14.5 | 0.00 | 2.97 | 1.45 | 83 | 1010.8 |
| 20260506140516 | 9 | 0 | 11.3 | 19.3 | 0.00 | 2.97 | 1.45 | 83 | 1010.7 |
| 20260506135516 | 10 | 315 | 9.7 | 20.9 | 0.00 | 2.97 | 1.45 | 84 | 1010.9 |
| 20260506134516 | 10 | 338 | 4.8 | 11.3 | 0.00 | 2.97 | 1.45 | 77 | 1011.0 |
| 20260506133516 | 10 | 203 | 6.4 | 11.3 | 0.00 | 2.97 | 1.45 | 76 | 1010.8 |
| 20260506132516 | 10 | 180 | 4.8 | 11.3 | 0.00 | 2.97 | 1.45 | 74 | 1010.9 |
| 20260506131516 | 10 | 225 | 6.4 | 9.7 | 0.00 | 2.97 | 1.45 | 77 | 1011.2 |
| 20260506130516 | 10 | 225 | 4.8 | 9.7 | 0.00 | 2.97 | 1.45 | 77 | 1010.9 |
| 20260506125516 | 10 | 203 | 9.7 | 17.7 | 0.00 | 2.97 | 1.45 | 82 | 1010.9 |
| 20260506124516 | 10 | 203 | 8.0 | 14.5 | 0.03 | 2.97 | 1.45 | 83 | 1011.0 |
| 20260506123516 | 9 | 203 | 8.0 | 12.9 | 0.03 | 2.97 | 1.45 | 88 | 1010.8 |
| 20260506122516 | 8 | 203 | 9.7 | 14.5 | 0.05 | 2.97 | 1.45 | 86 | 1010.8 |
| 20260506121516 | 8 | 180 | 8.0 | 16.1 | 0.05 | 2.97 | 1.45 | 85 | 1010.6 |
| 20260506120516 | 7 | 180 | 6.4 | 11.3 | 0.13 | 3.02 | 1.45 | 91 | 1010.7 |
| 20260506115516 | 7 | 203 | 6.4 | 9.7 | 0.18 | 3.10 | 1.45 | 91 | 1010.5 |
| 20260506114517 | 7 | 203 | 9.7 | 14.5 | 0.18 | 3.23 | 1.42 | 90 | 1010.4 |
| 20260506113516 | 7 | 203 | 9.7 | 14.5 | 0.20 | 3.38 | 1.42 | 92 | 1010.5 |
| 20260506112516 | 6 | 203 | 8.0 | 14.5 | 0.18 | 3.43 | 1.40 | 92 | 1010.6 |
| 20260506111516 | 6 | 203 | 11.3 | 19.3 | 0.18 | 3.53 | 1.37 | 92 | 1010.5 |
| 20260506110516 | 6 | 203 | 6.4 | 14.5 | 0.15 | 3.61 | 1.32 | 93 | 1010.3 |
| 20260506105516 | 7 | 203 | 6.4 | 17.7 | 0.10 | 3.63 | 1.27 | 92 | 1010.3 |
| 20260506104516 | 7 | 180 | 6.4 | 14.5 | 0.15 | 3.66 | 1.24 | 91 | 1010.2 |
| 20260506103516 | 7 | 203 | 11.3 | 17.7 | 0.18 | 3.66 | 1.22 | 91 | 1010.1 |
| 20260506102516 | 7 | 203 | 9.7 | 19.3 | 0.23 | 3.66 | 1.22 | 91 | 1010.0 |
| 20260506101516 | 8 | 248 | 3.2 | 8.0 | 0.20 | 3.63 | 1.19 | 92 | 1010.1 |
| 20260506100516 | 7 | 135 | 6.4 | 14.5 | 0.20 | 3.63 | 1.17 | 91 | 1009.7 |
| 20260506095516 | 7 | 203 | 6.4 | 14.5 | 0.20 | 3.63 | 1.17 | 89 | 1009.8 |
| 20260506094516 | 7 | 203 | 6.4 | 16.1 | 0.15 | 3.61 | 1.09 | 92 | 1009.5 |
| 20260506093516 | 7 | 180 | 11.3 | 16.1 | 0.15 | 3.53 | 1.04 | 91 | 1009.4 |
| 20260506092516 | 7 | 135 | 8.0 | 14.5 | 0.15 | 3.51 | 0.99 | 89 | 1009.2 |
| 20260506091516 | 7 | 158 | 9.7 | 17.7 | 0.23 | 3.53 | 0.99 | 89 | 1009.1 |
| 20260506090516 | 7 | 135 | 12.9 | 29.0 | 0.23 | 3.51 | 0.99 | 89 | 1009.1 |
| 20260506085516 | 7 | 135 | 9.7 | 24.1 | 0.23 | 3.51 | 0.97 | 91 | 1008.9 |
| 20260506084516 | 7 | 180 | 14.5 | 35.4 | 0.23 | 3.48 | 0.94 | 89 | 1008.9 |
| 20260506083516 | 7 | 180 | 11.3 | 17.7 | 0.23 | 3.43 | 0.89 | 93 | 1008.7 |
| 20260506082516 | 7 | 203 | 4.8 | 11.3 | 0.15 | 3.38 | 0.84 | 95 | 1008.7 |
| 20260506081515 | 7 | 180 | 12.9 | 27.4 | 0.10 | 3.30 | 0.76 | 95 | 1008.4 |
| 20260506080516 | 7 | 203 | 4.8 | 14.5 | 0.13 | 3.28 | 0.74 | 98 | 1008.2 |
| 20260506073515 | 7 | 338 | 3.2 | 6.4 | 0.28 | 3.23 | 0.69 | 98 | 1008.3 |
| 20260506072515 | 7 | 0.0 | 3.2 | 0.36 | 3.23 | 0.69 | 98 | 1008.2 | |
| 20260506071515 | 6 | 0.0 | 0.0 | 0.38 | 3.20 | 0.66 | 98 | 1008.1 | |
| 20260506070515 | 6 | 0.0 | 3.2 | 0.38 | 3.15 | 0.61 | 98 | 1008.0 |